User: anonymous   Login
Location: Alfortville
(48.8058°N, 2.4204°E)
Time: 21:32:25
(UTC+00:00)
Language:

JY1SAT - Orbit

View from above orbital plane
View from above orbital plane
View from above satellite
View from above satellite

Ground track
Ground track

The orbit data is extracted from the following two-line orbital elements,

1 43803U 18099AX  23081.07840378  .00007072  00000-0  57675-3 0  9995
2 43803  97.5843 145.9260 0015428  54.8332 305.4334 14.99661453234636
Epoch (UTC): 22 March 2023 01:52:54
Eccentricity: 0.0015428
inclination: 97.5843°
perigee height: 557 km
apogee height: 578 km
right ascension of ascending node: 145.9260°
argument of perigee: 54.8332°
revolutions per day: 14.99661453
mean anomaly at epoch: 305.4334°
orbit number at epoch: 23463

The dashed part of the orbit path shows where the satellite is in the earth's shadow,  

DLR